Time,TemperatureF,DewpointF,PressureIn,WindDirection,WindDirectionDegrees,WindSpeedMPH,WindSpeedGustMPH,Humidity,HourlyPrecipIn,Conditions,Clouds,dailyrainin,SoftwareType,DateUTC
2013-06-19 00:02:00,63.7,55.0,30.03,ESE,113,2.0,8.0,72,0.00,,,0.00,weatherlink.com 1.10,2013-06-19 05:02:00,
2013-06-19 00:17:00,63.1,55.0,30.03,SE,126,5.0,7.0,74,0.00,,,0.00,weatherlink.com 1.10,2013-06-19 05:17:00,
2013-06-19 00:32:00,62.7,55.0,30.04,ESE,111,4.0,8.0,75,0.00,,,0.00,weatherlink.com 1.10,2013-06-19 05:32:00,
2013-06-19 00:47:00,62.4,54.0,30.04,East,101,3.0,7.0,75,0.00,,,0.00,weatherlink.com 1.10,2013-06-19 05:47:00,
2013-06-19 01:02:00,62.2,53.0,30.05,ESE,117,4.0,8.0,73,0.00,,,0.00,weatherlink.com 1.10,2013-06-19 06:02:00,
2013-06-19 01:17:00,61.7,54.0,30.05,SE,126,4.0,5.0,75,0.00,,,0.00,weatherlink.com 1.10,2013-06-19 06:17:00,
2013-06-19 01:32:00,60.9,53.0,30.05,East,98,3.0,8.0,76,0.00,,,0.00,weatherlink.com 1.10,2013-06-19 06:32:00,
2013-06-19 01:47:00,60.5,52.0,30.05,ESE,117,7.0,7.0,74,0.00,,,0.00,weatherlink.com 1.10,2013-06-19 06:47:00,
2013-06-19 02:02:00,60.0,51.0,30.05,ESE,117,4.0,8.0,72,0.00,,,0.00,weatherlink.com 1.10,2013-06-19 07:02:00,
2013-06-19 02:17:00,59.6,50.0,30.05,East,96,5.0,7.0,71,0.00,,,0.00,weatherlink.com 1.10,2013-06-19 07:17:00,
2013-06-19 02:33:00,59.1,50.0,30.05,SE,132,4.0,5.0,72,0.00,,,0.00,weatherlink.com 1.10,2013-06-19 07:33:00,
2013-06-19 02:48:00,58.6,50.0,30.05,ESE,122,0.0,4.0,74,0.00,,,0.00,weatherlink.com 1.10,2013-06-19 07:48:00,
2013-06-19 03:03:00,58.1,50.0,30.04,ESE,107,3.0,4.0,75,0.00,,,0.00,weatherlink.com 1.10,2013-06-19 08:03:00,
2013-06-19 03:18:00,57.9,50.0,30.05,ESE,123,0.0,4.0,75,0.00,,,0.00,weatherlink.com 1.10,2013-06-19 08:18:00,
2013-06-19 03:33:00,57.5,49.0,30.05,ESE,116,0.0,2.0,74,0.00,,,0.00,weatherlink.com 1.10,2013-06-19 08:33:00,
2013-06-19 03:48:00,57.1,49.0,30.06,ESE,115,0.0,2.0,74,0.00,,,0.00,weatherlink.com 1.10,2013-06-19 08:48:00,
2013-06-19 04:03:00,56.9,48.0,30.06,ESE,115,1.0,2.0,73,0.00,,,0.00,weatherlink.com 1.10,2013-06-19 09:03:00,
2013-06-19 04:18:00,56.6,48.0,30.06,ESE,113,0.0,1.0,74,0.00,,,0.00,weatherlink.com 1.10,2013-06-19 09:18:00,
2013-06-19 04:33:00,56.1,49.0,30.06,ESE,110,0.0,3.0,76,0.00,,,0.00,weatherlink.com 1.10,2013-06-19 09:33:00,
2013-06-19 04:48:00,55.7,48.0,30.06,ESE,110,1.0,3.0,76,0.00,,,0.00,weatherlink.com 1.10,2013-06-19 09:48:00,
2013-06-19 05:03:00,55.5,48.0,30.06,ESE,109,1.0,3.0,77,0.00,,,0.00,weatherlink.com 1.10,2013-06-19 10:03:00,
2013-06-19 05:18:00,55.4,49.0,30.06,ESE,114,0.0,3.0,78,0.00,,,0.00,weatherlink.com 1.10,2013-06-19 10:18:00,
2013-06-19 05:33:00,55.2,48.0,30.07,ESE,114,0.0,1.0,78,0.00,,,0.00,weatherlink.com 1.10,2013-06-19 10:33:00,
2013-06-19 05:48:00,55.3,49.0,30.08,ESE,114,0.0,1.0,79,0.00,,,0.00,weatherlink.com 1.10,2013-06-19 10:48:00,
2013-06-19 06:04:00,55.6,49.0,30.08,ESE,114,0.0,3.0,78,0.00,,,0.00,weatherlink.com 1.10,2013-06-19 11:04:00,
2013-06-19 06:19:00,56.7,50.0,30.09,ESE,116,1.0,3.0,78,0.00,,,0.00,weatherlink.com 1.10,2013-06-19 11:19:00,
2013-06-19 06:34:00,57.8,50.0,30.09,ESE,111,3.0,4.0,76,0.00,,,0.00,weatherlink.com 1.10,2013-06-19 11:34:00,
2013-06-19 06:49:00,59.0,51.0,30.08,ESE,116,3.0,8.0,74,0.00,,,0.00,weatherlink.com 1.10,2013-06-19 11:49:00,
2013-06-19 07:04:00,60.0,51.0,30.09,East,96,6.0,8.0,73,0.00,,,0.00,weatherlink.com 1.10,2013-06-19 12:04:00,
2013-06-19 07:19:00,61.0,52.0,30.09,ESE,114,3.0,9.0,71,0.00,,,0.00,weatherlink.com 1.10,2013-06-19 12:19:00,
2013-06-19 07:34:00,62.2,52.0,30.09,SE,132,4.0,10.0,70,0.00,,,0.00,weatherlink.com 1.10,2013-06-19 12:34:00,
2013-06-19 07:49:00,63.5,53.0,30.09,ESE,121,5.0,10.0,69,0.00,,,0.00,weatherlink.com 1.10,2013-06-19 12:49:00,
2013-06-19 08:04:00,64.8,54.0,30.09,SSE,157,2.0,8.0,68,0.00,,,0.00,weatherlink.com 1.10,2013-06-19 13:04:00,
2013-06-19 08:19:00,65.7,54.0,30.10,ESE,110,4.0,9.0,67,0.00,,,0.00,weatherlink.com 1.10,2013-06-19 13:19:00,
2013-06-19 08:34:00,66.8,55.0,30.10,ESE,122,5.0,8.0,67,0.00,,,0.00,weatherlink.com 1.10,2013-06-19 13:34:00,
2013-06-19 08:49:00,67.9,56.0,30.11,SSE,165,2.0,6.0,65,0.00,,,0.00,weatherlink.com 1.10,2013-06-19 13:49:00,
2013-06-19 09:04:00,69.0,57.0,30.11,SE,144,5.0,7.0,65,0.00,,,0.00,weatherlink.com 1.10,2013-06-19 14:04:00,
2013-06-19 09:19:00,70.2,57.0,30.10,SSE,151,1.0,7.0,63,0.00,,,0.00,weatherlink.com 1.10,2013-06-19 14:19:00,
2013-06-19 09:35:00,71.0,58.0,30.10,East,100,3.0,8.0,63,0.00,,,0.00,weatherlink.com 1.10,2013-06-19 14:35:00,
2013-06-19 09:50:00,72.4,58.0,30.10,ESE,117,4.0,7.0,61,0.00,,,0.00,weatherlink.com 1.10,2013-06-19 14:50:00,
2013-06-19 10:05:00,73.1,59.0,30.10,SE,134,3.0,5.0,61,0.00,,,0.00,weatherlink.com 1.10,2013-06-19 15:05:00,
2013-06-19 10:20:00,74.4,59.0,30.09,NE,56,3.0,6.0,59,0.00,,,0.00,weatherlink.com 1.10,2013-06-19 15:20:00,
2013-06-19 10:35:00,75.3,59.0,30.09,ESE,107,1.0,3.0,57,0.00,,,0.00,weatherlink.com 1.10,2013-06-19 15:35:00,
2013-06-19 10:50:00,76.4,60.0,30.09,ENE,61,1.0,6.0,57,0.00,,,0.00,weatherlink.com 1.10,2013-06-19 15:50:00,
2013-06-19 11:05:00,77.3,59.0,30.09,SSE,150,3.0,7.0,53,0.00,,,0.00,weatherlink.com 1.10,2013-06-19 16:05:00,
2013-06-19 11:20:00,78.2,59.0,30.08,SSE,161,3.0,7.0,51,0.00,,,0.00,weatherlink.com 1.10,2013-06-19 16:20:00,
2013-06-19 11:35:00,79.0,57.0,30.08,East,97,5.0,7.0,47,0.00,,,0.00,weatherlink.com 1.10,2013-06-19 16:35:00,
2013-06-19 11:50:00,79.5,57.0,30.08,SE,132,2.0,7.0,46,0.00,,,0.00,weatherlink.com 1.10,2013-06-19 16:50:00,
2013-06-19 12:05:00,80.3,57.0,30.08,West,262,3.0,6.0,45,0.00,,,0.00,weatherlink.com 1.10,2013-06-19 17:05:00,
2013-06-19 12:20:00,80.8,56.0,30.08,East,92,1.0,7.0,42,0.00,,,0.00,weatherlink.com 1.10,2013-06-19 17:20:00,
2013-06-19 12:35:00,81.6,56.0,30.08,South,175,1.0,6.0,42,0.00,,,0.00,weatherlink.com 1.10,2013-06-19 17:35:00,
2013-06-19 12:51:00,81.8,56.0,30.07,NNW,331,0.0,4.0,42,0.00,,,0.00,weatherlink.com 1.10,2013-06-19 17:51:00,
2013-06-19 13:06:00,83.0,56.0,30.07,ESE,116,1.0,7.0,40,0.00,,,0.00,weatherlink.com 1.10,2013-06-19 18:06:00,
2013-06-19 13:21:00,83.3,57.0,30.06,East,81,0.0,8.0,40,0.00,,,0.00,weatherlink.com 1.10,2013-06-19 18:21:00,
2013-06-19 13:36:00,83.1,55.0,30.06,ESE,116,0.0,4.0,38,0.00,,,0.00,weatherlink.com 1.10,2013-06-19 18:36:00,
2013-06-19 13:51:00,83.3,55.0,30.05,West,261,2.0,7.0,38,0.00,,,0.00,weatherlink.com 1.10,2013-06-19 18:51:00,
2013-06-19 14:06:00,83.8,57.0,30.05,SE,126,4.0,5.0,40,0.00,,,0.00,weatherlink.com 1.10,2013-06-19 19:06:00,
2013-06-19 14:21:00,82.9,55.0,30.05,ESE,105,8.0,8.0,38,0.00,,,0.00,weatherlink.com 1.10,2013-06-19 19:21:00,
2013-06-19 14:36:00,83.0,55.0,30.04,SW,218,0.0,4.0,38,0.00,,,0.00,weatherlink.com 1.10,2013-06-19 19:36:00,
2013-06-19 14:51:00,83.6,55.0,30.04,East,97,1.0,4.0,38,0.00,,,0.00,weatherlink.com 1.10,2013-06-19 19:51:00,
2013-06-19 15:06:00,83.3,54.0,30.04,East,91,0.0,3.0,37,0.00,,,0.00,weatherlink.com 1.10,2013-06-19 20:06:00,
2013-06-19 15:21:00,84.4,55.0,30.03,West,277,1.0,4.0,37,0.00,,,0.00,weatherlink.com 1.10,2013-06-19 20:21:00,
2013-06-19 15:36:00,85.0,56.0,30.03,ESE,103,9.0,9.0,37,0.00,,,0.00,weatherlink.com 1.10,2013-06-19 20:36:00,
2013-06-19 15:51:00,84.1,55.0,30.03,South,188,1.0,4.0,37,0.00,,,0.00,weatherlink.com 1.10,2013-06-19 20:51:00,
2013-06-19 16:06:00,84.9,55.0,30.03,SSE,163,0.0,2.0,36,0.00,,,0.00,weatherlink.com 1.10,2013-06-19 21:06:00,
2013-06-19 16:22:00,85.2,55.0,30.03,SE,141,1.0,7.0,35,0.00,,,0.00,weatherlink.com 1.10,2013-06-19 21:22:00,
2013-06-19 16:37:00,84.2,55.0,30.03,South,178,2.0,5.0,37,0.00,,,0.00,weatherlink.com 1.10,2013-06-19 21:37:00,
2013-06-19 16:52:00,84.8,54.0,30.02,South,190,1.0,3.0,35,0.00,,,0.00,weatherlink.com 1.10,2013-06-19 21:52:00,
2013-06-19 17:07:00,85.5,55.0,30.02,SSW,211,0.0,4.0,35,0.00,,,0.00,weatherlink.com 1.10,2013-06-19 22:07:00,
2013-06-19 17:22:00,86.2,55.0,30.02,SSW,210,2.0,4.0,34,0.00,,,0.00,weatherlink.com 1.10,2013-06-19 22:22:00,
2013-06-19 17:37:00,86.2,54.0,30.02,WNW,300,3.0,5.0,33,0.00,,,0.00,weatherlink.com 1.10,2013-06-19 22:37:00,
2013-06-19 17:52:00,85.9,55.0,30.02,SSW,201,2.0,3.0,35,0.00,,,0.00,weatherlink.com 1.10,2013-06-19 22:52:00,
2013-06-19 18:07:00,85.4,56.0,30.02,West,259,1.0,4.0,36,0.00,,,0.00,weatherlink.com 1.10,2013-06-19 23:07:00,
2013-06-19 18:22:00,85.0,54.0,30.02,West,259,0.0,4.0,35,0.00,,,0.00,weatherlink.com 1.10,2013-06-19 23:22:00,
2013-06-19 18:37:00,84.8,54.0,30.03,West,263,0.0,3.0,35,0.00,,,0.00,weatherlink.com 1.10,2013-06-19 23:37:00,
2013-06-19 18:52:00,84.9,57.0,30.03,NNW,327,1.0,4.0,38,0.00,,,0.00,weatherlink.com 1.10,2013-06-19 23:52:00,
2013-06-19 19:07:00,84.7,56.0,30.03,NNW,327,0.0,1.0,38,0.00,,,0.00,weatherlink.com 1.10,2013-06-20 00:07:00,
2013-06-19 19:22:00,83.4,55.0,30.03,NNW,327,0.0,2.0,38,0.00,,,0.00,weatherlink.com 1.10,2013-06-20 00:22:00,
2013-06-19 19:38:00,83.2,56.0,30.02,NNW,336,0.0,0.0,39,0.00,,,0.00,weatherlink.com 1.10,2013-06-20 00:38:00,
2013-06-19 19:53:00,82.4,56.0,30.03,SE,130,0.0,1.0,41,0.00,,,0.00,weatherlink.com 1.10,2013-06-20 00:53:00,
2013-06-19 20:08:00,81.8,58.0,30.02,SE,130,0.0,0.0,44,0.00,,,0.00,weatherlink.com 1.10,2013-06-20 01:08:00,
2013-06-19 20:23:00,80.3,59.0,30.02,SE,130,0.0,0.0,48,0.00,,,0.00,weatherlink.com 1.10,2013-06-20 01:23:00,
2013-06-19 20:38:00,78.5,59.0,30.02,SE,130,0.0,0.0,51,0.00,,,0.00,weatherlink.com 1.10,2013-06-20 01:38:00,
2013-06-19 20:53:00,76.9,59.0,30.02,SE,130,0.0,0.0,54,0.00,,,0.00,weatherlink.com 1.10,2013-06-20 01:53:00,
2013-06-19 21:08:00,75.4,58.0,30.02,SE,130,0.0,0.0,55,0.00,,,0.00,weatherlink.com 1.10,2013-06-20 02:08:00,
2013-06-19 21:23:00,74.4,58.0,30.03,SE,130,0.0,0.0,56,0.00,,,0.00,weatherlink.com 1.10,2013-06-20 02:23:00,
2013-06-19 21:38:00,73.7,58.0,30.03,SE,130,0.0,0.0,58,0.00,,,0.00,weatherlink.com 1.10,2013-06-20 02:38:00,
2013-06-19 21:53:00,73.6,58.0,30.05,SSE,159,0.0,2.0,58,0.00,,,0.00,weatherlink.com 1.10,2013-06-20 02:53:00,
2013-06-19 22:08:00,73.1,58.0,30.05,SSE,155,0.0,2.0,60,0.00,,,0.00,weatherlink.com 1.10,2013-06-20 03:08:00,
2013-06-19 22:23:00,72.8,59.0,30.06,SSE,151,0.0,3.0,62,0.00,,,0.00,weatherlink.com 1.10,2013-06-20 03:23:00,
2013-06-19 22:38:00,72.7,59.0,30.06,SSE,165,4.0,4.0,62,0.00,,,0.00,weatherlink.com 1.10,2013-06-20 03:38:00,
2013-06-19 22:53:00,72.4,59.0,30.06,SSE,155,6.0,6.0,62,0.00,,,0.00,weatherlink.com 1.10,2013-06-20 03:53:00,
2013-06-19 23:09:00,72.5,59.0,30.06,South,170,2.0,7.0,62,0.00,,,0.00,weatherlink.com 1.10,2013-06-20 04:09:00,
2013-06-19 23:24:00,72.3,58.0,30.06,SSE,150,2.0,6.0,62,0.00,,,0.00,weatherlink.com 1.10,2013-06-20 04:24:00,
2013-06-19 23:39:00,71.6,59.0,30.06,ESE,118,1.0,5.0,64,0.00,,,0.00,weatherlink.com 1.10,2013-06-20 04:39:00,
2013-06-19 23:54:00,70.3,59.0,30.07,SSE,148,0.0,4.0,67,0.00,,,0.00,weatherlink.com 1.10,2013-06-20 04:54:00,